{"data":{"norad_id":69614,"epoch":"2026-09-20T04:00:03.000096Z","epoch_age_seconds":57760,"freshness":"FRESH","line1":"1 69614U 26140Y   26263.16670139 -.00064487  00000+0 -81303-2 0  9998","line2":"2 69614  51.9004 305.6894 0015011 124.9388 187.8795 14.81753148  2701","mean_motion":14.81753148,"eccentricity":0.0015011,"inclination_deg":51.9004,"raan_deg":305.6894,"arg_perigee_deg":124.9388,"mean_anomaly_deg":187.8795,"bstar":-0.0081303,"rev_number":270,"period_min":97.182179227602,"perigee_km":613.28515413435,"apogee_km":634.30635665259,"semimajor_km":7001.9327553935,"source":"CELESTRAK","updated_at":"2026-09-20T09:00:25.004521Z"}}